GFSSE_700_rhum_081.txt.gz
RH
34 31 32 31 24 23 22 22 23 24 24 24 24 23 22 20 16 12 11 9 8 6 4 4 6 7 8 10 11 12 14 13 11 9 7 6 7 8 9 10 11 10 10
34 34 36 33 25 23 24 25 25 26 25 24 26 26 25 24 23 21 17 12 9 8 8 7 4 4 5 6 6 6 6 5 5 5 6 7 8 10 11 11 11 16 19
35 32 36 34 28 25 26 28 30 29 28 28 28 27 27 26 26 26 26 25 21 12 9 9 8 7 6 6 5 5 5 6 7 8 9 11 11 11 12 17 19 17 18
36 31 34 33 30 30 32 29 30 30 29 30 30 29 28 27 26 26 26 27 27 24 17 12 10 10 10 10 10 10 10 10 10 10 11 13 18 20 20 18 20 20 21
37 31 32 33 33 35 37 33 29 31 30 32 33 32 30 28 26 25 24 24 24 26 26 25 22 19 16 16 17 19 20 21 21 20 19 18 18 22 22 22 21 23 24
39 31 32 33 35 37 39 39 35 27 33 34 35 36 35 34 32 30 27 24 23 22 21 20 20 20 19 18 18 18 19 20 21 20 21 21 24 22 23 25 24 24 24
40 32 32 34 37 39 40 40 40 36 28 34 35 35 35 36 36 37 36 33 29 24 22 21 21 21 21 22 22 23 24 26 26 26 25 24 24 23 23 25 25 26 26
38 35 32 34 38 40 41 40 40 40 38 32 32 33 34 33 32 30 32 36 36 34 30 27 26 27 29 31 31 30 30 30 32 31 30 28 26 25 25 26 26 26 26
38 38 33 34 37 40 42 40 40 41 41 39 34 34 37 39 39 38 36 31 33 37 37 36 35 34 34 33 34 39 41 42 43 42 41 41 39 35 30 28 27 27 26
40 45 34 33 36 38 42 42 41 42 42 42 41 36 35 39 43 44 43 41 40 34 35 36 36 36 40 43 45 46 45 42 43 39 37 37 38 38 39 36 33 31 30
48 47 37 33 33 36 39 42 41 42 42 42 43 43 38 37 38 45 45 46 45 43 42 38 39 42 44 47 46 44 45 44 49 44 47 48 44 38 39 41 39 37 36
51 51 44 35 32 32 36 38 40 42 43 44 44 44 45 44 39 38 43 46 46 46 46 45 45 43 43 46 48 49 49 49 52 50 52 52 46 39 41 45 45 45 45
50 53 46 38 34 31 31 36 39 41 44 45 45 45 45 45 45 43 40 38 43 48 47 46 46 46 46 47 48 50 52 54 56 55 55 54 49 39 40 46 50 53 54
42 50 48 43 40 36 32 31 35 40 43 45 46 46 46 46 45 45 45 43 42 42 48 49 49 48 48 48 48 50 50 51 51 55 56 55 52 40 43 44 49 53 51
42 35 39 44 44 44 44 42 35 34 39 44 45 46 47 48 47 47 47 47 47 45 44 44 48 50 50 50 50 50 51 52 51 52 55 56 54 45 43 48 50 53 48
43 35 39 36 31 30 34 39 45 40 35 38 42 45 46 47 48 48 48 49 49 49 47 44 44 46 51 51 51 51 52 52 52 52 54 57 56 51 43 51 52 53 52
43 45 43 42 38 37 36 39 44 47 47 44 43 45 49 48 47 47 48 49 50 50 50 45 40 39 46 51 52 52 53 53 54 54 54 57 58 54 47 49 55 56 59
48 52 54 50 46 46 40 42 39 39 45 47 48 50 53 54 54 54 54 53 52 52 50 44 39 39 42 49 51 52 53 54 55 56 56 57 60 59 51 49 55 57 60
41 43 47 51 47 49 47 39 38 38 32 33 34 39 44 46 48 48 46 45 46 46 45 43 41 42 46 53 54 53 53 54 56 57 58 60 59 62 59 55 56 58 60
31 40 42 42 48 46 45 39 33 35 30 29 32 37 36 34 33 32 30 33 40 45 52 53 51 48 45 50 59 58 56 56 56 58 60 62 63 61 62 59 61 62 62
31 36 42 43 43 42 42 39 36 36 36 38 41 38 39 38 38 38 39 38 42 48 52 50 47 46 52 57 63 62 63 60 60 60 63 64 65 66 67 63 64 67 70
26 31 37 40 49 49 48 48 48 48 53 48 46 44 41 41 42 44 44 44 44 45 48 47 46 56 64 63 62 66 66 66 64 69 70 69 68 68 69 71 74 73 77
30 35 42 45 43 46 52 58 59 55 53 50 45 47 49 51 53 53 51 48 48 48 51 52 55 58 65 70 74 76 70 66 66 65 68 73 75 75 75 78 80 83 87
34 25 26 38 46 46 42 42 47 48 51 53 59 64 62 62 60 58 56 52 50 49 52 52 62 63 65 65 68 66 69 72 75 76 74 77 79 79 84 90 95 97 99
35 31 23 22 30 40 47 46 46 45 46 49 53 60 65 68 67 66 59 53 50 51 53 59 66 62 64 67 68 71 73 75 78 81 82 80 82 86 91 100 100 98 96
25 23 21 24 22 20 22 24 26 28 28 29 30 31 34 30 28 32 42 46 43 47 52 59 65 65 63 66 68 72 77 76 80 84 89 90 88 85 88 97 96 98 92

GFSSE_700_rhum_084.txt.gz
RH
36 35 34 31 24 23 23 23 23 23 24 24 26 22 21 18 16 13 10 9 8 6 4 5 6 7 8 9 9 11 12 12 10 8 6 7 7 8 10 11 11 11 15
36 37 38 34 25 23 23 23 23 23 22 23 23 23 24 24 23 21 18 14 10 8 7 5 4 4 5 6 6 6 5 5 5 5 6 8 9 11 11 11 15 18 17
35 37 40 34 25 24 24 26 26 26 26 26 26 25 26 26 25 25 25 24 19 11 9 8 8 7 6 5 5 5 6 6 8 9 10 11 11 12 17 20 18 18 18
36 36 40 34 29 27 29 30 30 30 28 28 28 28 27 26 26 26 26 26 24 21 16 12 10 10 10 10 10 10 10 10 12 13 16 19 20 20 19 18 19 21 22
37 34 38 33 32 36 34 30 26 28 28 30 31 31 30 28 26 24 24 24 25 25 26 25 24 22 21 21 22 22 22 20 19 18 18 19 20 20 20 21 22 22 22
38 33 34 34 33 38 38 38 35 24 31 32 32 33 34 34 33 31 28 25 23 22 21 20 20 19 18 18 18 19 20 20 21 21 21 21 21 21 22 23 23 24 24
37 32 31 34 35 38 40 40 40 37 26 32 33 33 34 34 34 35 35 33 30 25 22 21 21 21 21 22 24 27 28 28 28 27 26 26 25 25 25 25 25 25 25
43 32 31 34 37 39 40 40 40 41 39 29 28 32 33 32 31 29 30 34 36 35 33 32 32 32 32 31 30 31 35 38 40 40 40 39 37 34 30 27 27 26 26
40 32 32 34 38 40 41 40 40 41 42 41 35 28 33 35 34 34 33 30 31 35 36 36 35 34 33 35 39 42 44 42 40 38 36 35 35 36 39 38 35 32 30
45 38 31 34 38 40 42 41 41 41 42 42 42 40 32 35 40 42 39 36 36 36 34 36 38 40 42 42 41 37 42 39 38 38 40 40 36 31 30 34 36 37 37
47 44 33 32 36 39 42 42 42 42 42 43 43 43 41 38 36 43 45 46 44 41 40 41 40 40 40 40 41 40 44 47 47 46 44 49 44 36 34 36 37 39 40
42 48 41 32 33 37 40 42 42 42 44 44 44 44 44 44 42 41 38 42 45 47 47 47 45 46 46 46 46 48 50 52 54 55 50 49 48 39 39 40 42 43 44
57 52 50 37 31 34 36 40 42 42 44 45 45 45 46 46 45 44 45 43 40 41 46 48 48 48 48 48 48 49 50 51 52 53 52 51 51 47 38 43 44 44 46
53 57 53 43 36 31 32 35 38 40 43 45 45 46 46 46 46 46 45 46 46 46 43 46 48 50 50 50 50 50 50 51 52 54 53 54 55 52 43 40 46 44 45
52 54 55 49 40 36 32 30 32 36 40 43 45 46 47 48 47 48 47 47 48 48 48 46 46 47 49 51 52 52 52 52 51 53 55 55 57 57 53 42 47 50 49
52 44 48 48 46 44 42 42 39 35 33 38 42 44 46 47 48 49 49 49 49 50 50 50 49 45 43 47 51 52 53 53 53 53 54 56 57 58 58 52 46 49 54
52 50 49 43 37 38 39 40 42 46 42 36 37 39 43 46 46 47 47 48 48 49 50 51 51 47 43 41 43 50 52 53 54 55 55 56 58 59 60 58 52 50 52
46 51 47 41 37 35 33 34 35 38 45 48 47 48 51 51 52 52 52 54 55 54 53 53 52 46 44 44 48 52 53 53 53 55 56 57 59 61 61 62 60 56 56
39 53 49 43 40 41 43 46 40 40 40 36 40 43 42 40 40 46 51 48 43 40 40 43 46 48 47 47 45 45 52 57 56 56 56 58 60 61 64 65 64 64 62
35 41 55 54 49 48 45 51 49 44 35 37 32 30 31 32 38 35 33 33 32 30 33 38 44 48 49 50 49 51 53 57 61 61 60 60 61 64 66 68 69 72 72
29 29 42 51 50 47 46 49 47 37 38 41 39 39 37 39 40 38 39 41 42 41 39 40 43 45 46 53 59 60 62 61 61 66 71 71 70 70 71 72 72 75 79
34 28 28 40 50 50 48 44 42 42 47 48 49 49 44 43 44 44 46 47 47 48 47 46 47 47 52 59 67 75 70 66 66 70 73 73 75 76 77 80 81 81 83
40 37 28 27 34 46 54 58 51 51 50 49 47 48 52 57 54 55 53 50 53 54 53 53 49 53 54 62 65 72 70 66 68 72 76 80 84 86 88 88 87 88 90
45 40 31 28 27 29 43 52 59 61 57 53 56 56 55 55 52 54 56 56 56 60 59 58 55 59 60 60 68 72 74 78 79 75 72 73 78 83 87 88 91 97 100
48 45 37 32 25 28 33 42 50 48 48 52 53 51 48 49 49 50 53 56 60 59 58 57 54 54 56 57 63 70 73 72 71 70 69 74 78 82 85 87 89 90 91
52 50 48 43 34 30 25 28 37 46 54 56 56 60 63 71 75 73 67 59 54 48 46 44 38 36 42 49 62 64 64 65 73 78 92 98 98 100 97 96 91 93 96

GFSSE_700_rhum_087.txt.gz
RH
37 34 31 28 23 22 21 21 21 22 23 25 24 22 20 19 17 15 12 10 8 6 4 5 6 6 7 7 8 10 12 12 9 7 6 7 7 9 11 11 11 16 18
37 36 33 34 25 23 23 23 23 22 22 23 23 23 23 22 22 21 19 16 11 8 6 4 5 6 7 7 7 7 6 5 5 6 8 10 11 11 11 17 19 17 17
37 37 32 36 25 22 23 25 26 26 26 26 25 25 25 25 24 24 24 22 17 11 9 8 7 7 6 6 6 7 8 9 10 11 11 12 16 20 20 18 18 18 18
36 37 39 36 29 25 27 29 30 30 29 29 28 28 27 25 24 24 25 24 23 21 17 14 12 10 10 10 10 11 13 16 18 20 19 18 18 18 18 20 20 20 22
36 39 40 41 36 34 29 25 25 27 28 30 30 30 29 28 26 24 24 24 25 24 24 24 24 24 24 24 22 20 19 18 19 19 20 20 20 21 21 22 22 23 23
36 37 40 39 40 37 37 36 27 25 29 30 30 32 33 34 33 31 28 24 23 22 21 21 20 19 19 19 20 21 22 24 26 26 25 25 24 24 23 23 24 24 24
36 35 37 35 39 39 41 41 40 33 22 29 31 32 32 32 32 33 34 32 30 26 24 22 22 23 25 28 29 29 29 32 34 36 36 36 34 30 27 26 26 26 26
32 35 33 34 37 39 41 41 41 41 35 25 26 30 30 29 28 28 32 34 35 35 35 35 34 33 32 32 35 39 41 41 40 37 35 35 35 38 39 37 34 31 30
41 30 31 34 35 39 40 41 41 42 42 40 34 27 28 29 30 31 31 29 31 34 35 35 35 36 39 43 44 42 39 36 35 34 36 35 34 32 31 34 36 37 37
45 33 31 34 37 39 41 41 41 42 42 42 42 38 33 31 32 34 34 32 34 35 35 35 35 36 36 35 39 40 41 42 44 44 41 43 39 35 33 31 33 34 37
47 40 30 33 37 39 41 42 42 42 42 43 43 44 42 41 38 36 39 41 40 40 42 41 40 41 42 42 45 48 47 48 48 50 49 45 43 36 37 38 39 40 42
40 46 34 31 37 40 42 42 42 42 43 44 44 44 44 45 44 42 42 37 39 43 46 48 48 48 48 49 49 50 51 52 51 51 52 49 48 44 36 40 41 41 43
36 50 44 32 35 39 42 43 43 43 44 44 45 45 46 46 46 45 45 46 46 45 42 47 49 49 50 50 51 51 51 52 53 53 53 53 50 51 48 38 42 45 44
49 51 57 38 31 36 40 42 43 43 44 45 45 46 46 46 46 46 46 45 46 47 48 46 45 47 50 51 52 52 52 52 53 53 54 54 55 54 54 51 43 45 48
64 58 56 56 40 32 36 37 41 43 44 45 45 46 46 46 47 47 48 47 48 48 49 50 50 49 47 47 48 48 52 53 54 54 54 55 56 57 57 57 53 47 48
64 61 60 59 50 38 32 32 34 38 40 41 42 45 47 48 49 49 49 50 50 50 50 51 52 52 50 47 44 44 46 52 54 54 55 56 56 58 59 60 59 56 52
59 63 52 56 50 44 38 33 30 31 32 33 37 40 43 46 47 48 49 50 49 49 49 50 51 52 52 49 46 46 48 50 53 53 54 56 57 59 60 62 65 64 60
59 64 58 49 46 46 46 47 46 45 45 42 37 37 40 44 46 47 47 47 50 53 56 55 52 51 50 48 48 48 47 49 54 56 55 56 57 60 61 63 65 69 69
46 54 54 49 46 46 46 44 40 38 37 41 46 49 51 54 55 55 56 56 51 53 43 35 33 38 45 49 51 52 52 50 50 54 62 60 59 60 63 66 68 70 76
51 42 40 47 48 48 51 54 51 45 41 40 39 40 43 42 40 40 42 43 35 33 35 36 34 36 41 48 49 48 48 52 56 58 67 71 70 67 66 69 72 74 75
42 40 37 38 46 48 45 43 41 44 46 46 41 41 34 34 36 39 39 37 40 42 44 42 43 42 40 42 40 41 45 53 58 65 68 74 77 80 80 80 81 82 83
43 37 36 33 37 46 48 45 46 46 54 51 46 48 44 44 43 43 45 46 48 48 48 49 53 52 50 49 50 54 49 49 53 66 68 76 81 87 90 92 92 90 93
38 39 37 33 33 39 45 47 46 47 44 42 40 40 45 52 60 55 55 55 56 54 54 58 60 59 58 56 56 61 58 54 56 60 68 74 78 83 85 87 88 92 95
42 40 38 35 38 39 43 49 50 49 50 50 49 56 64 64 63 58 58 59 60 58 60 63 67 66 65 61 59 60 62 63 75 68 58 59 67 72 76 81 84 87 88
50 45 38 41 42 42 39 44 46 51 54 55 58 59 57 58 60 58 58 55 54 56 60 66 70 69 62 58 54 54 57 57 59 72 72 74 68 81 73 93 97 89 98
59 52 48 42 41 41 39 39 44 44 44 45 50 54 57 58 59 58 55 57 57 54 60 68 63 50 44 41 36 36 37 60 84 72 71 61 72 88 76 99 81 93 86

GFSSE_700_rhum_093.txt.gz
RH
37 30 30 24 20 19 20 20 21 23 25 23 22 21 20 20 19 17 15 11 6 5 5 6 13 9 12 10 10 11 8 6 6 9 11 11 12 18 19 18 18 18 17
34 34 32 26 22 21 22 23 23 24 25 23 23 22 22 22 21 21 18 11 8 6 5 6 7 8 8 6 5 5 8 10 11 13 17 20 20 18 18 19 22 37 34
34 36 26 29 23 22 22 23 25 25 25 25 25 25 24 24 24 24 20 16 12 9 8 7 7 7 8 10 11 13 16 19 20 19 20 19 18 20 21 33 68 63 38
35 37 39 28 22 22 25 27 28 28 28 27 27 26 26 25 24 24 24 24 22 19 17 15 15 16 19 21 21 20 19 20 21 22 21 21 21 21 23 26 28 26 29
36 38 38 29 29 27 27 29 29 29 29 29 29 28 27 25 24 24 23 23 23 23 23 22 21 20 19 20 22 24 26 27 27 28 28 27 26 26 26 25 25 25 25
37 38 37 36 31 28 23 27 28 30 30 31 31 32 32 30 28 26 24 22 21 21 21 21 22 24 26 28 29 31 36 37 38 38 37 36 36 36 34 31 30 29 28
38 39 35 36 39 35 28 22 29 30 32 33 33 30 29 29 30 30 29 28 27 27 30 31 32 31 32 35 37 37 36 32 28 26 25 24 25 28 34 37 36 36 36
38 40 38 37 42 39 37 28 22 24 27 27 27 25 26 26 27 28 30 31 32 33 33 33 34 37 38 36 32 30 29 28 29 29 31 30 32 29 26 28 30 33 34
34 39 41 40 41 41 40 38 34 34 26 21 21 21 23 24 24 25 25 26 27 28 31 34 35 33 31 32 35 37 37 36 36 36 36 37 35 36 36 36 36 36 36
30 34 37 43 40 42 42 42 41 41 40 39 35 26 23 23 24 24 26 26 27 29 30 32 34 36 39 42 43 43 45 46 47 47 46 42 40 36 37 38 38 38 38
32 31 30 39 42 42 42 42 42 42 42 43 44 44 44 32 30 28 28 30 33 35 37 39 42 45 48 50 51 52 52 52 52 52 52 53 48 44 43 36 36 39 39
41 30 29 33 41 41 41 42 42 42 43 44 45 45 46 46 46 42 37 41 41 37 44 47 49 49 50 50 51 52 52 53 54 54 54 54 55 55 49 46 43 39 38
54 40 30 31 36 40 40 41 42 42 43 44 44 45 46 45 45 46 46 46 45 45 47 47 46 46 47 50 51 53 53 54 54 54 55 56 56 56 56 53 49 47 43
56 54 39 29 36 37 40 41 42 42 43 43 44 45 45 46 46 46 46 46 47 48 48 49 50 51 51 49 46 47 48 50 52 54 55 56 56 57 57 57 55 52 52
66 60 55 36 32 38 38 40 42 42 43 44 44 45 46 46 46 46 47 47 47 48 49 49 47 49 52 53 52 50 48 47 46 49 52 54 55 57 58 59 59 60 60
68 62 62 53 32 35 40 40 42 42 43 44 44 45 45 46 47 47 48 48 48 49 50 52 51 50 52 53 54 54 51 47 47 49 51 53 54 55 57 58 60 61 63
73 74 65 62 48 33 36 42 41 43 43 44 45 45 46 46 47 47 48 49 50 50 51 52 51 50 51 55 56 54 51 49 49 51 53 55 58 58 57 58 59 61 62
86 80 89 87 82 59 37 37 43 43 43 44 44 45 46 46 47 48 49 50 50 50 50 49 51 56 57 51 45 40 40 42 45 49 53 55 59 65 66 63 61 61 62
93 99 84 85 86 80 73 47 37 44 45 45 45 43 41 42 42 44 46 47 48 48 48 53 56 52 32 30 33 33 34 35 37 40 47 54 62 64 66 69 72 72 70
89 93 94 85 85 81 74 78 57 40 40 37 36 45 43 36 38 41 45 48 51 54 57 55 44 32 34 37 38 42 42 41 37 38 45 50 59 66 68 71 73 75 77
87 84 90 88 86 90 78 72 57 40 41 49 53 45 39 46 50 55 58 56 54 50 50 43 36 38 42 47 44 51 51 48 48 47 48 51 53 53 60 62 69 78 82
85 80 88 92 90 90 91 91 86 72 68 60 53 51 51 46 47 48 45 39 39 43 43 40 42 45 48 54 53 59 55 55 57 58 55 54 55 59 61 66 72 75 81
85 83 86 90 96 96 95 94 93 85 73 68 58 53 50 50 50 45 44 45 45 45 47 48 50 53 60 60 64 64 64 65 65 60 54 53 58 62 60 74 77 78 80
92 86 87 83 77 75 78 73 90 92 93 77 76 70 70 67 65 58 55 58 58 57 57 59 65 73 76 68 64 68 76 80 78 59 46 27 34 47 51 88 83 84 73
81 78 74 76 81 77 68 60 59 72 76 82 77 72 62 79 84 67 62 67 69 73 80 80 86 76 75 67 70 74 79 67 52 47 36 95 66 84 75 98 79 100 81
64 66 67 57 56 56 56 59 58 56 64 68 72 68 67 62 61 60 65 74 67 60 64 65 72 73 71 71 75 71 54 39 32 32 33 42 78 67 100 67 72 94 57